GW6569 Weather Reports


Display with metric or nautical units.
time (UTC)temp
F
wind
direction
speed
MPH
gust
MPH
rain 1hr
in
rain 24hr
in
rain mn
in
humidity
%
barometer
mb
20260505164014 77 152 11.0 18.0 0.00 0.00 0.00 44 1016.8
20260505163515 77 166 5.0 13.0 0.00 0.00 0.00 43 1016.7
20260505163041 77 160 9.0 13.0 0.00 0.00 0.00 42 1016.8
20260505162515 77 268 5.0 16.0 0.00 0.00 0.00 44 1016.8
20260505162012 77 229 6.0 14.0 0.00 0.00 0.00 45 1016.8
20260505161544 77 242 8.0 14.0 0.00 0.00 0.00 45 1016.7
20260505161019 76 200 6.0 18.0 0.00 0.00 0.00 45 1016.9
20260505160516 76 205 11.0 18.0 0.00 0.00 0.00 46 1016.8
20260505153050 75 182 7.0 15.0 0.00 0.00 0.00 47 1017.0
20260505152514 75 221 8.0 16.0 0.00 0.00 0.00 49 1016.9
20260505152015 74 254 7.0 16.0 0.00 0.00 0.00 49 1017.0
20260505151544 74 184 6.0 18.0 0.00 0.00 0.00 50 1017.1
20260505151013 74 238 8.0 18.0 0.00 0.00 0.00 50 1017.3
20260505150515 74 178 6.0 12.0 0.00 0.00 0.00 50 1017.1
20260505140516 70 240 5.0 15.0 0.00 0.00 0.00 57 1017.4
20260505125014 65 288 3.0 8.0 0.00 0.00 0.00 64 1017.4
20260505124600 64 200 4.0 10.0 0.00 0.00 0.00 65 1017.3
20260505124017 64 191 5.0 12.0 0.00 0.00 0.00 65 1017.5
20260505123518 63 205 6.0 12.0 0.00 0.00 0.00 66 1017.4
20260505123056 63 202 7.0 11.0 0.00 0.00 0.00 66 1017.5
20260505122513 63 211 6.0 11.0 0.00 0.00 0.00 67 1017.2
20260505122202 63 196 6.0 10.0 0.00 0.00 0.00 68 1017.3
20260505121546 62 232 6.0 10.0 0.00 0.00 0.00 68 1017.1
20260505121012 62 229 3.0 12.0 0.00 0.00 0.00 69 1017.3
20260505120514 62 360 4.0 12.0 0.00 0.00 0.00 70 1017.5
20260505120053 62 238 6.0 11.0 0.00 0.00 0.00 69 1017.3
20260505115512 61 218 6.0 11.0 0.00 0.00 0.00 70 1017.3
20260505115015 61 242 7.0 11.0 0.00 0.00 0.00 70 1017.1
20260505114537 61 213 25.0 10.0 0.00 0.00 0.00 71 1017.2
20260505114014 61 178 25.0 7.0 0.00 0.00 0.00 1017.2
20260505113513 60 211 25.0 12.0 0.00 0.00 0.00 73 1017.2
20260505113044 60 211 25.0 12.0 0.00 0.00 0.00 73 1017.1
20260505112513 60 237 25.0 12.0 0.00 0.00 0.00 73 1017.2
20260505112014 60 211 25.0 11.0 0.00 0.00 0.00 73 1017.2
20260505111544 60 175 25.0 11.0 0.00 0.00 0.00 73 1017.3
20260505111011 0 25.0 0.0 0.00 0.00 0.00 1017.1
20260505110514 0 25.0 0.0 0.00 0.00 0.00 1016.9
20260505102014 61 217 7.0 15.0 0.00 0.00 0.00 70 1016.5
20260505101544 60 238 8.0 15.0 0.00 0.00 0.00 70 1016.5
20260505101017 61 260 9.0 15.0 0.00 0.00 0.00 70 1016.4
20260505100517 61 229 9.0 15.0 0.00 0.00 0.00 70 1016.3
20260505100040 61 215 9.0 15.0 0.00 0.00 0.00 69 1016.3
20260505095512 61 205 9.0 15.0 0.00 0.00 0.00 69 1016.4
20260505095014 61 220 9.0 16.0 0.00 0.00 0.00 69 1016.2
20260505094538 61 227 9.0 16.0 0.00 0.00 0.00 69 1016.1
20260505094012 61 201 9.0 16.0 0.00 0.00 0.00 69 1015.9
20260505093515 61 241 9.0 16.0 0.00 0.00 0.00 69 1016.0
20260505093046 61 254 9.0 15.0 0.00 0.00 0.00 69 1015.8
20260505092516 61 218 25.0 14.0 0.00 0.00 0.00 1015.8
20260505092016 0 25.0 0.0 0.00 0.00 0.00 1016.0
20260505091543 0 25.0 0.0 0.00 0.00 0.00 1016.0
20260505091015 0 25.0 0.0 0.00 0.00 0.00 1015.9
20260505090515 0 25.0 0.0 0.00 0.00 0.00 1015.8
20260505090043 0 25.0 0.0 0.00 0.00 0.00 1015.7
20260505085515 0 25.0 0.0 0.00 0.00 0.00 1015.7
20260505085015 0 25.0 0.0 0.00 0.00 0.00 1015.9
20260505084546 0 25.0 0.0 0.00 0.00 0.00 1015.8
20260505084014 62 242 25.0 7.0 0.00 0.00 0.00 1015.9
20260505083516 62 242 25.0 7.0 0.00 0.00 0.00 1015.7
20260505083045 0 25.0 0.0 0.00 0.00 0.00 1015.8
20260505082512 0 25.0 0.0 0.00 0.00 0.00 1015.5
20260505082014 0 25.0 0.0 0.00 0.00 0.00 1015.9
20260505081547 0 25.0 0.0 0.00 0.00 0.00 1015.7
20260505081018 0 25.0 0.0 0.00 0.00 0.00 1015.6
20260505080519 0 25.0 0.0 0.00 0.00 0.00 1015.7
20260505080050 0 25.0 0.0 0.00 0.00 0.00 1015.7
20260505075520 62 217 5.0 9.0 0.00 0.00 0.00 1015.7
20260505075015 62 217 5.0 9.0 0.00 0.00 0.00 1015.6
20260505074543 62 360 5.0 11.0 0.00 0.00 0.00 65 1015.6
20260505074015 62 236 4.0 12.0 0.00 0.00 0.00 65 1015.8
20260505073516 63 205 5.0 12.0 0.00 0.00 0.00 65 1015.8
20260505073042 63 209 3.0 10.0 0.00 0.00 0.00 65 1015.7
20260505072515 63 205 6.0 13.0 0.00 0.00 0.00 64 1015.5
20260505072016 63 205 4.0 13.0 0.00 0.00 0.00 64 1015.6
20260505071550 63 180 5.0 11.0 0.00 0.00 0.00 64 1015.3
20260505071016 63 196 6.0 11.0 0.00 0.00 0.00 64 1015.5
20260505070515 63 360 4.0 14.0 0.00 0.00 0.00 64 1015.5
20260505065515 63 217 5.0 10.0 0.00 0.00 0.00 63 1015.3
20260505065015 63 196 5.0 10.0 0.00 0.00 0.00 63 1015.3
20260505064556 63 181 5.0 12.0 0.00 0.00 0.00 63 1015.4
20260505064015 63 360 3.0 15.0 0.00 0.00 0.00 63 1015.4
20260505063515 63 360 4.0 15.0 0.00 0.00 0.00 62 1015.3
20260505063052 63 360 6.0 15.0 0.00 0.00 0.00 62 1015.3
20260505062515 64 360 5.0 12.0 0.00 0.00 0.00 62 1015.5
20260505062014 64 360 5.0 15.0 0.00 0.00 0.00 62 1015.3
20260505061611 64 360 5.0 15.0 0.00 0.00 0.00 62 1015.5
20260505061017 64 360 5.0 17.0 0.00 0.00 0.00 62 1015.6
20260505060515 64 360 8.0 17.0 0.00 0.00 0.00 61 1015.4
20260505060058 64 194 6.0 14.0 0.00 0.00 0.00 61 1015.4
20260505055516 64 226 7.0 14.0 0.00 0.00 0.00 61 1015.8
20260505055014 64 178 6.0 14.0 0.00 0.00 0.00 61 1015.5
20260505054551 64 147 5.0 13.0 0.00 0.00 0.00 62 1015.8
20260505054015 64 206 7.0 13.0 0.00 0.00 0.00 61 1015.5
20260505053516 64 225 5.0 10.0 0.00 0.00 0.00 61 1015.6
20260505053046 64 201 5.0 15.0 0.00 0.00 0.00 61 1015.4
20260505052516 64 183 8.0 15.0 0.00 0.00 0.00 61 1015.8
20260505052018 64 184 5.0 12.0 0.00 0.00 0.00 61 1015.5
20260505051551 64 200 5.0 10.0 0.00 0.00 0.00 61 1015.6
20260505051016 64 186 5.0 12.0 0.00 0.00 0.00 61 1015.6
20260505050516 65 209 6.0 16.0 0.00 0.00 0.00 61 1015.6
20260505041532 65 172 7.0 16.0 0.00 0.00 0.00 61 1015.4
20260505041011 65 183 8.0 16.0 0.00 0.00 0.00 61 1015.3
20260505040510 65 203 7.0 15.0 0.00 0.00 0.00 61 1015.4
20260505040052 65 213 9.0 16.0 0.00 0.00 0.00 61 1015.3
20260505035514 66 193 7.0 16.0 0.00 0.00 0.00 61 1015.3
20260505035017 66 220 8.0 18.0 0.00 0.00 0.00 61 1015.2
20260505034540 66 215 7.0 18.0 0.00 0.00 0.00 61 1015.3
20260505034011 66 173 7.0 17.0 0.00 0.00 0.00 61 1015.2
20260505033511 66 186 4.0 19.0 0.00 0.00 0.00 61 1015.3
20260505033030 66 236 9.0 19.0 0.00 0.00 0.00 61 1015.4
20260505032513 66 190 6.0 15.0 0.00 0.00 0.00 60 1015.2
20260505032011 66 190 5.0 16.0 0.00 0.00 0.00 60 1015.5
20260505031545 66 200 8.0 16.0 0.00 0.00 0.00 61 1015.4
20260505031011 66 169 7.0 14.0 0.00 0.00 0.00 60 1015.4
20260505030511 66 180 6.0 16.0 0.00 0.00 0.00 60 1015.3
20260505030030 66 223 10.0 16.0 0.00 0.00 0.00 60 1015.3
20260505025516 67 199 6.0 16.0 0.00 0.00 0.00 61 1015.5
20260505025011 67 227 7.0 18.0 0.00 0.00 0.00 60 1015.5
20260505024534 67 179 8.0 18.0 0.00 0.00 0.00 61 1015.4
20260505024011 67 217 7.0 19.0 0.00 0.00 0.00 61 1015.3
20260505023511 67 165 11.0 19.0 0.00 0.00 0.00 61 1015.4
20260505023034 67 217 7.0 16.0 0.00 0.00 0.00 61 1015.2
20260505022512 67 182 6.0 17.0 0.00 0.00 0.00 61 1015.5
20260505022010 67 191 9.0 18.0 0.00 0.00 0.00 61 1015.3
20260505021533 67 178 8.0 18.0 0.00 0.00 0.00 61 1015.2
20260505021014 67 209 6.0 11.0 0.00 0.00 0.00 61 1015.0
20260505020511 67 198 7.0 12.0 0.00 0.00 0.00 61 1015.1
20260505020039 68 175 7.0 15.0 0.00 0.00 0.00 60 1015.1
20260505015510 68 154 8.0 18.0 0.00 0.00 0.00 61 1015.0
20260505015016 68 201 9.0 18.0 0.00 0.00 0.00 60 1015.1
20260505014541 68 190 6.0 16.0 0.00 0.00 0.00 60 1015.4
20260505014010 68 207 8.0 16.0 0.00 0.00 0.00 60 1015.1
20260505013512 68 202 10.0 15.0 0.00 0.00 0.00 60 1015.1
20260505013031 68 165 7.0 17.0 0.00 0.00 0.00 60 1015.0
20260505012512 68 194 10.0 17.0 0.00 0.00 0.00 60 1015.1
20260505012011 69 161 7.0 19.0 0.00 0.00 0.00 60 1014.9
20260505011537 69 230 9.0 24.0 0.00 0.00 0.00 59 1014.9
20260505011013 69 166 9.0 24.0 0.00 0.00 0.00 59 1014.7
20260505010510 69 149 9.0 17.0 0.00 0.00 0.00 59 1014.7
20260505010036 69 222 9.0 17.0 0.00 0.00 0.00 59 1014.6
20260505005511 69 191 8.0 16.0 0.00 0.00 0.00 59 1014.4
20260505005013 69 178 7.0 21.0 0.00 0.00 0.00 59 1014.4
20260505004542 69 200 7.0 21.0 0.00 0.00 0.00 58 1014.2
20260505004011 69 360 8.0 16.0 0.00 0.00 0.00 58 1014.3
20260505003514 70 175 8.0 15.0 0.00 0.00 0.00 58 1014.1
20260505003035 70 145 7.0 14.0 0.00 0.00 0.00 57 1014.2
20260505002510 70 360 5.0 16.0 0.00 0.00 0.00 57 1014.3
20260505002012 70 360 9.0 16.0 0.00 0.00 0.00 57 1014.1
20260505001534 70 151 9.0 18.0 0.00 0.00 0.00 56 1014.0
20260505001013 70 191 8.0 18.0 0.00 0.00 0.00 55 1014.0
20260505000513 71 169 10.0 18.0 0.00 0.00 0.00 55 1013.9
20260505000047 71 138 9.0 19.0 0.00 0.00 0.00 54 1014.0
20260504235513 71 180 8.0 19.0 0.00 0.00 0.00 53 1013.8
20260504235012 72 206 8.0 19.0 0.00 0.00 0.00 52 1013.8
20260504234536 72 228 7.0 19.0 0.00 0.00 0.00 51 1013.8
20260504234011 72 169 9.0 14.0 0.00 0.00 0.00 49 1013.7
20260504233512 73 157 6.0 14.0 0.00 0.00 0.00 46 1013.7
20260504233039 74 174 6.0 11.0 0.00 0.00 0.00 40 1013.5
20260504232513 75 214 4.0 11.0 0.00 0.00 0.00 36 1013.3
20260504232010 75 172 5.0 12.0 0.00 0.00 0.00 35 1013.2
20260504231534 75 207 6.0 12.0 0.00 0.00 0.00 35 1013.2
20260504231017 75 206 5.0 16.0 0.00 0.00 0.00 35 1013.2
20260504230512 75 210 7.0 16.0 0.00 0.00 0.00 35 1013.2
20260504230035 76 205 6.0 16.0 0.00 0.00 0.00 34 1013.4
20260504225515 76 173 8.0 15.0 0.00 0.00 0.00 34 1013.3
20260504225013 76 194 10.0 18.0 0.00 0.00 0.00 34 1013.2
20260504224531 76 234 5.0 17.0 0.00 0.00 0.00 35 1013.5
20260504224018 76 225 2.0 11.0 0.00 0.00 0.00 35 1013.4
20260504223512 76 240 6.0 14.0 0.00 0.00 0.00 34 1013.2
20260504223037 76 177 6.0 14.0 0.00 0.00 0.00 35 1013.2
20260504222513 77 173 6.0 13.0 0.00 0.00 0.00 34 1013.3
20260504222011 77 172 8.0 15.0 0.00 0.00 0.00 34 1013.3
20260504221533 77 172 6.0 16.0 0.00 0.00 0.00 34 1013.3
20260504221013 77 217 8.0 16.0 0.00 0.00 0.00 33 1013.3
20260504220510 77 245 4.0 12.0 0.00 0.00 0.00 34 1013.3
20260504220044 77 192 7.0 18.0 0.00 0.00 0.00 34 1013.3
20260504215513 77 192 8.0 18.0 0.00 0.00 0.00 33 1013.3
20260504215013 77 171 6.0 13.0 0.00 0.00 0.00 33 1013.4
20260504214539 77 223 6.0 16.0 0.00 0.00 0.00 33 1013.4
20260504214012 77 215 7.0 18.0 0.00 0.00 0.00 34 1013.5
20260504213512 77 204 4.0 17.0 0.00 0.00 0.00 33 1013.5
20260504213050 77 194 7.0 14.0 0.00 0.00 0.00 33 1013.5
20260504212511 77 185 3.0 15.0 0.00 0.00 0.00 33 1013.7
20260504212017 77 172 6.0 15.0 0.00 0.00 0.00 33 1013.5
20260504211541 77 180 4.0 13.0 0.00 0.00 0.00 33 1013.6
20260504211013 77 213 9.0 18.0 0.00 0.00 0.00 32 1013.6
20260504210512 78 188 7.0 18.0 0.00 0.00 0.00 33 1013.5
20260504210036 77 269 2.0 14.0 0.00 0.00 0.00 33 1013.7
20260504205514 77 185 6.0 14.0 0.00 0.00 0.00 34 1013.6
20260504205010 77 171 4.0 16.0 0.00 0.00 0.00 32 1013.7
20260504204541 77 184 8.0 16.0 0.00 0.00 0.00 33 1013.8
20260504204012 77 259 6.0 17.0 0.00 0.00 0.00 33 1013.7
20260504203512 77 163 9.0 18.0 0.00 0.00 0.00 32 1013.9
20260504203036 77 250 7.0 17.0 0.00 0.00 0.00 31 1013.8
20260504202513 78 204 4.0 15.0 0.00 0.00 0.00 32 1013.8
20260504202013 78 190 5.0 18.0 0.00 0.00 0.00 32 1013.9
20260504201538 77 207 5.0 18.0 0.00 0.00 0.00 33 1013.8
20260504201012 77 228 8.0 17.0 0.00 0.00 0.00 33 1013.6
20260504200512 76 266 6.0 17.0 0.00 0.00 0.00 33 1013.8
20260504200038 77 201 6.0 14.0 0.00 0.00 0.00 33 1013.8
20260504195511 76 171 8.0 14.0 0.00 0.00 0.00 34 1013.8
20260504195015 76 177 4.0 13.0 0.00 0.00 0.00 34 1014.0
20260504194536 76 184 5.0 15.0 0.00 0.00 0.00 34 1014.0
20260504194014 76 193 6.0 12.0 0.00 0.00 0.00 33 1014.0
20260504193512 76 171 4.0 15.0 0.00 0.00 0.00 34 1014.0
20260504193043 76 181 7.0 16.0 0.00 0.00 0.00 34 1014.2
20260504192514 76 209 6.0 16.0 0.00 0.00 0.00 35 1014.1
20260504192013 76 170 4.0 16.0 0.00 0.00 0.00 34 1014.3
20260504191535 76 201 6.0 15.0 0.00 0.00 0.00 34 1014.3
20260504191014 76 213 7.0 15.0 0.00 0.00 0.00 34 1014.1
20260504190516 76 193 4.0 19.0 0.00 0.00 0.00 34 1014.6
20260504190035 76 221 7.0 11.0 0.00 0.00 0.00 35 1014.6
20260504185515 76 160 3.0 16.0 0.00 0.00 0.00 35 1014.4
20260504185016 75 147 5.0 16.0 0.00 0.00 0.00 35 1014.7
20260504184533 76 141 7.0 16.0 0.00 0.00 0.00 34 1014.7
20260504184017 76 160 3.0 12.0 0.00 0.00 0.00 36 1014.7
20260504183513 75 195 5.0 13.0 0.00 0.00 0.00 36 1015.0
20260504183030 75 170 8.0 13.0 0.00 0.00 0.00 36 1015.1
20260504182513 75 234 4.0 13.0 0.00 0.00 0.00 37 1015.3
20260504182016 74 176 5.0 16.0 0.00 0.00 0.00 36 1015.2
20260504181534 74 352 7.0 16.0 0.00 0.00 0.00 36 1015.3
20260504181014 74 296 4.0 15.0 0.00 0.00 0.00 37 1015.5
20260504180514 74 171 8.0 15.0 0.00 0.00 0.00 37 1015.4
20260504180051 74 233 6.0 17.0 0.00 0.00 0.00 38 1015.5
20260504175517 74 198 8.0 17.0 0.00 0.00 0.00 37 1015.5
20260504175017 74 182 6.0 12.0 0.00 0.00 0.00 37 1015.6
20260504174539 74 168 4.0 12.0 0.00 0.00 0.00 38 1015.6
20260504174014 74 228 6.0 12.0 0.00 0.00 0.00 37 1015.7
20260504173513 74 107 5.0 11.0 0.00 0.00 0.00 37 1015.6
20260504173032 74 246 4.0 13.0 0.00 0.00 0.00 38 1015.7
20260504172514 74 219 7.0 12.0 0.00 0.00 0.00 37 1015.7
20260504172016 74 200 4.0 15.0 0.00 0.00 0.00 39 1015.8
20260504171538 73 241 5.0 14.0 0.00 0.00 0.00 40 1015.6
20260504171013 73 260 2.0 12.0 0.00 0.00 0.00 39 1015.8
20260504170514 73 254 5.0 12.0 0.00 0.00 0.00 39 1015.9